World of Logs combat log analyzer allows gamers to save, share and analyze their raiding experiences conveniently and thoroughly in the Blizzard MMO World of Warcraft. If you're new here, make sure you check out the tour for a 1 minute introduction. If you have any questions, we're happy to answer them on the forums.

DPS HPS
Odyn
Helya
Guarm
Reports for Iron Qon - statistics
# Date Time Damage DPS Guild Realm
1 13 Sep 2013 04:44 984.50M 3463484.2 Conviction EU-Arathor
2 20 Sep 2013 05:06 986.03M 3221899.2 Conviction EU-Arathor
3 04 May 2014 05:43 983.77M 2867613.9 Wåntèd US-Garrosh
4 01 Jun 2013 07:08 1229.36M 2866976.8 Group Therapy EU-Ravencrest
5 04 Jun 2013 07:17 1230.01M 2814233.8 Lunatic-2 EU-Ysondre
6 03 Jun 2013 07:24 1229.86M 2766842.4 Last Judgement EU-Kilrogg
7 26 May 2013 07:26 1229.88M 2755461.7 Did it for Whitney US-Thrall
8 23 May 2013 07:27 1229.45M 2749312.1 Thrust US-Dark Iron
9 04 Jun 2013 07:29 1230.06M 2735212.4 Афины EU-Свежеватель Душ
10 27 May 2013 07:31 1230.12M 2723892.5 The Hive EU-Cho’gall
11 30 May 2013 07:34 1229.94M 2706307.6 Advent Fury US-Hyjal
12 06 May 2013 07:35 1229.65M 2701098.7 Blue Label US-Barthilas
13 09 May 2013 07:36 1230.21M 2696519.7 /Hug US-Mannoroth
14 03 Jun 2013 07:37 1229.89M 2690244.0 Thrust US-Dark Iron
15 14 May 2013 07:37 1229.39M 2687341.6 Si Vis Pacem Parabellum EU-Sargeras
16 01 Sep 2013 07:42 1230.71M 2661050.8 The Wyld Hunt EU-Argent Dawn
17 02 Jun 2013 07:44 1229.63M 2649889.7 Shroud US-Zul'jin
18 04 Jun 2013 07:44 1229.71M 2645339.7 Colour EU-Stormreaver
19 20 May 2013 07:45 1229.88M 2644067.8 Infusion US-Azjol-Nerub
20 16 May 2013 07:51 1230.03M 2608773.4 Vox Radix US-Darkspear
21 03 Jun 2013 07:55 1229.87M 2584632.5 Wipefest EU-Ragnaros
22 06 May 2013 07:57 1230.72M 2578969.6 Imperium EU-Nagrand
23 30 May 2013 07:57 1229.89M 2575286.2 Borderline Amazing US-Bleeding Hollow
24 13 May 2013 07:59 1230.72M 2567617.7 Brogger's Loggers US-Kil'jaeden
25 12 May 2013 08:01 1230.07M 2553999.8 Naitomea EU-Thrall
26 13 May 2013 08:03 1230.69M 2545060.6 Monos Luv Shack US-Hellscream
27 06 Sep 2013 08:06 1229.49M 2526150.2 The DMZ EU-Eonar
28 02 Jun 2013 08:13 1229.21M 2492210.4 Ira Cruenta EU-Kult der Verdammten
29 27 May 2013 08:16 1229.22M 2474511.7 A Necessary Evil EU-Hellfire
30 28 Jul 2013 08:16 1229.88M 2475182.6 Triarii US-Dragonblight
31 03 Jun 2013 08:17 1229.73M 2472598.5 The Hive EU-Cho’gall
32 04 Jun 2013 08:18 1229.85M 2466163.4 Daybreak US-Turalyon
33 04 Jun 2013 08:18 1229.85M 2465080.9 Heckyville US-Turalyon
34 04 Jun 2013 08:19 1229.99M 2463911.3 Pendulum EU-Kazzak
35 23 May 2013 08:19 1229.26M 2460199.3 The Church US-Darkspear
36 13 May 2013 08:21 1229.07M 2452795.9 EndGame EU-Al'Akir
37 28 Apr 2013 08:21 1230.20M 2451514.7 Pandemonium US-Windrunner
38 28 Apr 2013 08:21 1230.20M 2451080.0 Andrew US-Fizzcrank
39 02 Jun 2013 08:23 1229.80M 2440228.3 Equinox US-Misha
40 08 Aug 2013 08:26 1229.77M 2426307.0 Mostly Harmless US-Undermine
41 21 May 2013 08:29 1229.35M 2411698.9 Unknown Entity EU-Sylvanas
42 28 Apr 2013 08:32 1229.64M 2399528.3 Method EU-Twisting Nether
43 31 May 2013 08:35 1229.60M 2384033.8 Accidents Happen US-Mal'Ganis
44 28 May 2013 08:36 1229.94M 2380385.4 Seraph US-Mal'Ganis
45 14 Apr 2013 08:38 1229.33M 2370197.2 Last Resort EU-Kazzak
46 21 May 2013 08:39 1229.64M 2365932.3 Conviction EU-Arathor
47 30 May 2013 08:41 1230.12M 2358091.7 Picked Last US-Arthas
48 03 Jun 2013 08:43 1229.45M 2347782.9 Dawn of the Dead US-Zul'jin
49 13 May 2013 08:43 1229.84M 2347319.0 Infusion US-Azjol-Nerub
50 23 May 2013 08:44 1229.39M 2344786.3 Turbo Cyborg Ninjas US-Ner'zhul
51 16 May 2013 08:44 1232.20M 2349854.6 Brogger's Loggers US-Kil'jaeden
52 03 Jun 2013 08:45 1229.56M 2340133.4 Tangled Wire EU-Drak'thul
53 13 Aug 2013 08:46 1229.33M 2335034.1 The DMZ EU-Eonar
54 05 May 2013 08:46 1229.97M 2333930.4 Andrew US-Fizzcrank
55 05 May 2013 08:46 1229.97M 2333930.4 Andrew US-Fizzcrank
56 04 Apr 2013 08:52 1231.11M 2314040.2 Method EU-Twisting Nether
57 02 Apr 2013 08:53 1229.46M 2303346.0 Echoes EU-Laughing Skull
58 04 Jun 2013 08:55 1229.53M 2297692.8 Eutopia EU-Suramar
59 18 May 2013 08:55 1229.62M 2296763.6 Cadenza US-Tichondrius
60 02 Jun 2013 08:56 1229.28M 2291601.3 Adelante US-Arthas
61 29 Apr 2013 08:56 1229.43M 2291092.5 Fallen II US-Tichondrius
62 08 Apr 2013 09:01 1229.50M 2270255.6 Unholy Trinity US-Burning Blade
63 13 May 2013 09:02 1229.38M 2266646.3 Verdammte Horde EU-Zirkel des Cenarius
64 22 Apr 2013 09:04 1229.90M 2257603.1 Tempest EU-Blackmoore
65 20 May 2013 09:09 1230.21M 2239781.6 Sacrifice US-Mannoroth
66 03 Jun 2013 09:09 1229.69M 2238006.6 Supermassive US-Turalyon
67 20 Aug 2013 09:09 1229.80M 2236731.4 The DMZ EU-Eonar
68 28 May 2013 09:10 1229.17M 2234765.2 Carpe Noctem EU-Silvermoon
69 16 Apr 2013 09:10 1229.68M 2232607.7 Synaisthesis EU-Ревущий фьорд
70 03 Jun 2013 09:11 1229.52M 2231114.7 Phoenix EU-Silvermoon
71 04 Jun 2013 09:11 1229.42M 2228349.0 Ascendance EU-Draenor
72 20 May 2013 09:11 1229.94M 2228694.1 Prodigy US-Zul'jin
73 03 Jun 2013 09:12 1229.39M 2226338.2 The Unnamed US-Tanaris
74 25 Apr 2013 09:13 1230.11M 2221844.2 Safturento's Logs US-Mal'Ganis
75 28 Apr 2013 09:13 1229.89M 2221145.3 Moronic Impression EU-Frostwhisper
76 23 May 2013 09:15 1229.66M 2214996.6 Forgotten Aspects US-Hyjal
77 30 Jul 2013 09:15 1229.71M 2214352.2 The DMZ EU-Eonar
78 15 Apr 2013 09:16 1230.02M 2212206.6 Imperium EU-Nagrand
79 27 May 2013 09:16 1229.49M 2210598.4 Ascendance EU-Draenor
80 26 May 2013 09:16 1229.47M 2209326.0 Anarchie EU-Der Rat von Dalaran
81 09 Jul 2013 09:18 1229.48M 2199653.2 The DMZ EU-Eonar
82 14 May 2013 09:19 1229.58M 2197975.8 Conviction EU-Arathor
83 14 May 2013 09:19 1229.58M 2197881.5 Conviction EU-Arathor
84 23 Apr 2013 09:20 1229.79M 2194507.7 WHF EU-Thrall
85 04 Jun 2013 09:20 1230.17M 2194036.0 Компромисс EU-Гордунни
86 22 Apr 2013 09:21 1229.49M 2191529.1 Months Behind US-Eredar
87 21 Apr 2013 09:22 1229.64M 2186565.9 Trolltyg EU-Stormreaver
88 22 Apr 2013 09:23 1229.48M 2182055.2 Imperium EU-Nagrand
89 27 Apr 2013 09:25 1229.70M 2176303.4 Cadenza US-Tichondrius
90 07 May 2013 09:25 1230.25M 2176567.8 KLR EU-Sylvanas
91 28 May 2013 09:25 1229.65M 2172831.9 Олд Скул EU-Борейская тундра
92 07 May 2013 09:27 1230.79M 2170455.7 Справедливые EU-Ревущий фьорд
93 30 Apr 2013 09:28 1229.80M 2165029.2 anomalous logs EU-Гордунни
94 21 Apr 2013 09:28 1229.32M 2163500.0 Tyranny US-Shattered Hand
95 29 Apr 2013 09:28 1229.73M 2164109.8 Gehenna EU-Stormreaver
96 20 May 2013 09:28 1229.71M 2163145.9 Pain and Pleasure EU-Blackrock
97 03 Jun 2013 09:28 1229.70M 2162449.2 iRage EU-Blackhand
98 02 Jun 2013 09:29 1229.50M 2160664.4 M I C US-Arthas
99 22 Apr 2013 09:29 1234.84M 2168965.6 Lunatic-2 EU-Ysondre
100 05 Sep 2013 09:30 1229.66M 2156673.8 My Other Mount is Tauren US-Aerie Peak

Please do not close the page with the ad you want to report.

I've posted a guide on how to report misbehaving ads on the forum. Please follow the instructions and help make the internet a safer place. Thanks for you time.